This is the latest recevied weather packets stored in our database for station/object W5SDC. If no packets are shown the sender has not sent any weather packets the latest 10 day(s).
| Time | Temp. | Humidity | Pressure | Rain* | Wind** | Luminosity | Snow |
|---|---|---|---|---|---|---|---|
| 1777578919 | 17.78° C | 99% | 1012.9 hPa | 0.51 mm | - | - | - |
| 1777578332 | 17.78° C | 99% | 1013.1 hPa | 1.78 mm | - | - | - |
| 1777574719 | 16.67° C | 99% | 1014 hPa | 5.59 mm | - | - | - |
| 1777569951 | 17.22° C | 99% | 1013.7 hPa | 1.52 mm | - | - | - |
| 1777567529 | 17.22° C | 99% | 1015.1 hPa | 5.33 mm | - | - | - |
| 1777565732 | 17.22° C | 99% | 1015.3 hPa | 0.25 mm | - | - | - |
| 1777565127 | 17.22° C | 99% | 1014.9 hPa | 0 mm | - | - | - |
| 1777564833 | 17.22° C | 99% | 1014.7 hPa | 0 mm | - | - | - |
| 1777563349 | 17.78° C | 99% | 1013.8 hPa | 0 mm | - | - | - |
| 1777560926 | 16.11° C | 99% | 1014.4 hPa | 0.25 mm | - | - | - |
| 1777557332 | 15.56° C | 99% | 1014.3 hPa | 0 mm | - | - | - |
| 1777556726 | 16.11° C | 99% | 1014 hPa | 0 mm | - | - | - |
| 1777555848 | 15.56° C | 99% | 1014.1 hPa | 0 mm | - | - | - |
| 1777553718 | 15.56° C | 99% | 1013.9 hPa | 0 mm | - | - | - |
| 1777553131 | 15.56° C | 99% | 1013.4 hPa | 0 mm | - | - | - |
| 1777552232 | 15° C | 99% | 1013.3 hPa | 0 mm | - | - | - |
| 1777551961 | 15° C | 99% | 1012.9 hPa | 0 mm | - | - | - |
| 1777551315 | 15° C | 99% | 1012.7 hPa | 0 mm | - | - | - |
| 1777549518 | 15° C | 99% | 1012.2 hPa | 0 mm | - | - | - |
| 1777549226 | 15° C | 99% | 1012.2 hPa | 0 mm | - | - | - |
| 1777546528 | 15° C | 99% | 1013.2 hPa | 0 mm | - | - | - |
| 1777544125 | 15° C | 99% | 1013.2 hPa | 0 mm | - | - | - |
| 1777543226 | 15° C | 99% | 1013.6 hPa | 0 mm | - | - | - |
| 1777542621 | 15° C | 99% | 1013.7 hPa | 0 mm | - | - | - |
| 1777539026 | 15° C | 99% | 1013.6 hPa | 0 mm | - | - | - |
* Rain latest hour (hover to see other rain measurements)
** Current wind speed in m/s (hover to see current wind gust speed)